• In Hungary
  • List of Countries
  • For 7 days
  • Water Temperature
  • Satellite Maps
  • Weather Map
  • News
  • Weather Widgets
  • user-avatar
    Login

    Hourly Weather Korolevu

    Today, 21 June, Thursday

    Time Temperature Precipitation Wind Pressure Humidity
    00:00 +23°C° 0 mm 1 mps 738 mmHg 97%
    01:00 +23°C° 0 mm 1 mps 738 mmHg 97%
    02:00 +23°C° 0 mm 1 mps 738 mmHg 97%
    03:00 +23°C° 0 mm 1 mps 738 mmHg 97%
    04:00 +23°C° 0 mm 1 mps 738 mmHg 97%
    05:00 +22°C° 0 mm 1 mps 738 mmHg 97%
    06:00 +22°C° 0 mm 1 mps 738 mmHg 97%
    07:00 +24°C° 0 mm 1 mps 738 mmHg 89%
    08:00 +26°C° 0 mm 1 mps 738 mmHg 82%
    09:00 +28°C° 0 mm 1 mps 738 mmHg 75%
    10:00 +29°C° 0 mm 1 mps 738 mmHg 68%
    11:00 +31°C° 0 mm 1 mps 738 mmHg 62%
    12:00 +32°C° 0 mm 1 mps 738 mmHg 53%
    13:00 +31°C° 0 mm 1 mps 737 mmHg 59%
    14:00 +30°C° 0 mm 1 mps 737 mmHg 64%
    15:00 +29°C° 0 mm 2 mps 737 mmHg 69%
    16:00 +28°C° 0.1 mm 1 mps 737 mmHg 77%
    17:00 +27°C° 0.1 mm 1 mps 737 mmHg 84%
    18:00 +23°C° 0 mm 0 mps 737 mmHg 92%
    19:00 +23°C° 0 mm 0 mps 737 mmHg 94%
    20:00 +23°C° 0 mm 0 mps 737 mmHg 95%
    21:00 +22°C° 0 mm 0 mps 737 mmHg 96%
    22:00 +24°C° 0 mm 1 mps 737 mmHg 96%
    23:00 +24°C° 0 mm 1 mps 737 mmHg 97%

    Tomorrow, 22 June, Friday

    Time Temperature Precipitation Wind Pressure Humidity
    00:00 +24°C° 0 mm 2 mps 738 mmHg 97%
    01:00 +24°C° 0 mm 2 mps 737 mmHg 98%
    02:00 +24°C° 0 mm 2 mps 737 mmHg 98%
    03:00 +24°C° 0 mm 1 mps 737 mmHg 98%
    04:00 +23°C° 0 mm 1 mps 737 mmHg 98%
    05:00 +23°C° 0 mm 1 mps 737 mmHg 98%
    06:00 +23°C° 0 mm 1 mps 737 mmHg 98%
    07:00 +24°C° 0 mm 1 mps 737 mmHg 95%
    08:00 +25°C° 0 mm 1 mps 738 mmHg 92%
    09:00 +26°C° 0 mm 1 mps 738 mmHg 89%
    10:00 +27°C° 0.1 mm 1 mps 738 mmHg 83%
    11:00 +28°C° 0.1 mm 1 mps 738 mmHg 78%
    12:00 +29°C° 0.1 mm 2 mps 738 mmHg 73%
    13:00 +28°C° 0.3 mm 2 mps 737 mmHg 78%
    14:00 +27°C° 0.3 mm 2 mps 737 mmHg 84%
    15:00 +26°C° 0.3 mm 2 mps 737 mmHg 89%
    16:00 +25°C° 0.4 mm 2 mps 737 mmHg 91%
    17:00 +25°C° 0.4 mm 2 mps 737 mmHg 93%
    18:00 +24°C° 0.4 mm 3 mps 737 mmHg 96%
    19:00 +24°C° 0.1 mm 3 mps 737 mmHg 96%
    20:00 +24°C° 0.1 mm 3 mps 738 mmHg 96%
    21:00 +22°C° 0.1 mm 3 mps 738 mmHg 96%
    22:00 +23°C° 0.1 mm 2 mps 738 mmHg 96%
    23:00 +23°C° 0.1 mm 2 mps 738 mmHg 96%

    Day after tomorrow, 23 June, Saturday

    Time Temperature Precipitation Wind Pressure Humidity
    00:00 +23°C° 0.1 mm 2 mps 738 mmHg 96%
    01:00 +23°C° 0 mm 2 mps 738 mmHg 96%
    02:00 +23°C° 0 mm 2 mps 737 mmHg 96%
    03:00 +23°C° 0 mm 2 mps 737 mmHg 96%
    04:00 +23°C° 0.1 mm 2 mps 737 mmHg 96%
    05:00 +23°C° 0.1 mm 2 mps 737 mmHg 95%
    06:00 +23°C° 0.1 mm 2 mps 737 mmHg 95%
    07:00 +23°C° 0 mm 2 mps 737 mmHg 93%
    08:00 +24°C° 0 mm 2 mps 738 mmHg 91%
    09:00 +24°C° 0 mm 2 mps 738 mmHg 89%
    10:00 +25°C° 0 mm 2 mps 738 mmHg 85%
    11:00 +26°C° 0 mm 2 mps 738 mmHg 81%
    12:00 +27°C° 0 mm 2 mps 738 mmHg 77%
    13:00 +27°C° 0.1 mm 2 mps 738 mmHg 79%
    14:00 +26°C° 0.1 mm 2 mps 737 mmHg 81%
    15:00 +26°C° 0.1 mm 2 mps 737 mmHg 83%
    16:00 +25°C° 0.1 mm 2 mps 737 mmHg 86%
    17:00 +24°C° 0.1 mm 2 mps 737 mmHg 89%
    18:00 +23°C° 0.1 mm 2 mps 737 mmHg 92%
    19:00 +23°C° 0 mm 2 mps 737 mmHg 93%
    20:00 +23°C° 0 mm 2 mps 738 mmHg 93%
    21:00 +23°C° 0 mm 2 mps 738 mmHg 93%
    22:00 +23°C° 0 mm 2 mps 738 mmHg 94%
    23:00 +23°C° 0 mm 2 mps 738 mmHg 94%

    24 June, Sunday

    Time Temperature Precipitation Wind Pressure Humidity
    00:00 +23°C° 0 mm 2 mps 738 mmHg 94%
    01:00 +21°C° 0 mm 2 mps 738 mmHg 94%
    02:00 +21°C° 0 mm 2 mps 737 mmHg 94%
    03:00 +21°C° 0 mm 2 mps 737 mmHg 95%
    04:00 +21°C° 0 mm 2 mps 737 mmHg 95%
    05:00 +21°C° 0 mm 2 mps 737 mmHg 95%
    06:00 +21°C° 0 mm 2 mps 737 mmHg 95%
    07:00 +23°C° 0 mm 2 mps 738 mmHg 91%
    08:00 +24°C° 0 mm 2 mps 738 mmHg 88%
    09:00 +25°C° 0 mm 2 mps 739 mmHg 84%
    10:00 +26°C° 0 mm 2 mps 739 mmHg 80%
    11:00 +27°C° 0 mm 2 mps 739 mmHg 76%
    12:00 +28°C° 0 mm 2 mps 738 mmHg 73%
    13:00 +27°C° 0.2 mm 2 mps 738 mmHg 76%
    14:00 +27°C° 0.2 mm 2 mps 737 mmHg 79%
    15:00 +26°C° 0.2 mm 2 mps 737 mmHg 82%
    16:00 +26°C° 0.1 mm 2 mps 737 mmHg 85%
    17:00 +25°C° 0.1 mm 2 mps 737 mmHg 89%
    18:00 +24°C° 0.1 mm 2 mps 737 mmHg 92%
    19:00 +23°C° 0 mm 2 mps 738 mmHg 93%
    20:00 +23°C° 0 mm 2 mps 738 mmHg 94%
    21:00 +23°C° 0 mm 2 mps 739 mmHg 95%
    22:00 +23°C° 0 mm 2 mps 738 mmHg 95%
    23:00 +23°C° 0 mm 2 mps 738 mmHg 95%

    25 June, Monday

    Time Temperature Precipitation Wind Pressure Humidity
    00:00 +21°C° 0 mm 2 mps 738 mmHg 96%
    01:00 +22°C° 0 mm 1 mps 738 mmHg 96%
    02:00 +22°C° 0 mm 1 mps 737 mmHg 96%
    03:00 +22°C° 0 mm 1 mps 737 mmHg 97%
    04:00 +22°C° 0 mm 1 mps 737 mmHg 97%
    05:00 +22°C° 0 mm 1 mps 737 mmHg 97%
    06:00 +22°C° 0 mm 1 mps 737 mmHg 97%
    07:00 +23°C° 0 mm 1 mps 738 mmHg 92%
    08:00 +25°C° 0 mm 1 mps 738 mmHg 87%
    09:00 +26°C° 0 mm 1 mps 739 mmHg 82%
    10:00 +27°C° 0.1 mm 1 mps 739 mmHg 77%
    11:00 +28°C° 0.1 mm 1 mps 739 mmHg 72%
    12:00 +30°C° 0.1 mm 1 mps 738 mmHg 67%
    13:00 +29°C° 0.3 mm 1 mps 738 mmHg 73%
    14:00 +28°C° 0.3 mm 1 mps 737 mmHg 79%
    15:00 +27°C° 0.3 mm 1 mps 737 mmHg 85%
    16:00 +26°C° 0.1 mm 1 mps 737 mmHg 88%
    17:00 +25°C° 0.1 mm 1 mps 737 mmHg 92%
    18:00 +24°C° 0.1 mm 1 mps 737 mmHg 95%
    19:00 +24°C° 0.1 mm 1 mps 738 mmHg 96%
    20:00 +24°C° 0.1 mm 1 mps 738 mmHg 96%
    21:00 +24°C° 0.1 mm 1 mps 739 mmHg 97%
    22:00 +24°C° 0.1 mm 1 mps 738 mmHg 97%
    23:00 +24°C° 0.1 mm 1 mps 738 mmHg 97%

    26 June, Tuesday

    Time Temperature Precipitation Wind Pressure Humidity
    00:00 +24°C° 0.1 mm 2 mps 738 mmHg 97%
    01:00 +23°C° 0.1 mm 2 mps 738 mmHg 97%
    02:00 +23°C° 0.1 mm 2 mps 737 mmHg 98%
    03:00 +23°C° 0.1 mm 2 mps 737 mmHg 98%
    04:00 +23°C° 0.1 mm 2 mps 737 mmHg 98%
    05:00 +23°C° 0.1 mm 2 mps 738 mmHg 98%
    06:00 +23°C° 0.1 mm 2 mps 738 mmHg 97%
    07:00 +23°C° 0.1 mm 2 mps 738 mmHg 96%
    08:00 +24°C° 0.1 mm 2 mps 739 mmHg 94%
    09:00 +24°C° 0.1 mm 2 mps 739 mmHg 93%
    10:00 +25°C° 0.1 mm 2 mps 739 mmHg 87%
    11:00 +26°C° 0.1 mm 3 mps 739 mmHg 82%
    12:00 +26°C° 0.1 mm 3 mps 739 mmHg 77%
    13:00 +26°C° 0.1 mm 3 mps 738 mmHg 78%
    14:00 +26°C° 0.1 mm 3 mps 738 mmHg 78%
    15:00 +25°C° 0.1 mm 3 mps 737 mmHg 79%
    16:00 +25°C° 0 mm 3 mps 738 mmHg 82%
    17:00 +24°C° 0 mm 3 mps 738 mmHg 85%
    18:00 +22°C° 0 mm 3 mps 738 mmHg 89%
    19:00 +21°C° 0 mm 3 mps 739 mmHg 90%
    20:00 +21°C° 0 mm 3 mps 739 mmHg 91%
    21:00 +21°C° 0 mm 3 mps 740 mmHg 92%
    22:00 +21°C° 0 mm 3 mps 739 mmHg 92%
    23:00 +20°C° 0 mm 3 mps 739 mmHg 92%
    Show more